Location: Bishopshall
(52.3150°N, 7.1208°W)
Time: 19:29:05
(UTC+00:00)

Daily predictions for brighter satellites

Satellite Brightness Start Highest point End
(mag) Time Altitude Azimuth Time Altitude Azimuth Time Altitude Azimuth
Cosmos 1777 Rocket 4.0 18:44:34 10° NNW 18:49:49 64° ENE 18:55:00 10° SE
Okean-O 2.7 18:45:54 10° SSE 18:50:17 64° ENE 18:54:41 10° N
Cosmos 1933 Rocket 3.7 18:47:19 10° S 18:51:33 51° E 18:55:51 10° NNE
CSL-04 DEB 4.3 18:48:18 10° NNE 18:52:17 68° ESE 18:56:19 10° S
Cosmos 1862 Rocket 4.5 18:48:26 10° NNW 18:52:51 57° W 18:57:13 10° S
Cosmos 1666 Rocket 4.4 18:48:54 10° SSW 18:53:08 55° WNW 18:57:25 10° N
H-2A R/B 2.2 18:48:56 10° SSE 18:54:24 81° ENE 18:59:50 10° NNW
CSL-04 Debris 4.4 18:49:35 10° SE 18:54:53 54° ENE 19:00:14 10° N
Cosmos 2237 4.2 18:51:13 10° SSW 18:56:56 80° ESE 19:02:43 10° NNE
SJ-6B 4.3 18:54:29 10° ESE 18:57:25 20° ENE 19:00:21 10° NNE
Ariane Rocket 4.2 18:57:13 10° ESE 19:01:14 24° ENE 19:05:16 10° N
USA 186 3.1 18:59:55 10° ESE 19:01:33 15° ENE 19:03:15 10° NNE
Cosmos 1500 3.1 18:58:45 10° S 19:02:28 75° E 19:06:14 10° NNE
Okean O Rocket 4.2 18:59:45 10° SSW 19:03:25 26° W 19:07:06 10° NW
OBJECT-B 2.6 19:02:23 10° E 19:04:17 15° ENE 19:06:11 10° NNE
Okean 1-7 3.0 19:01:28 10° N 19:05:52 73° ENE 19:10:10 10° SSE
Meteor 1-11 Rocket 4.3 19:01:54 10° SSE 19:06:56 34° E 19:11:55 10° NNE
PSLV R/B 4.1 19:03:08 10° NNE 19:07:09 51° E 19:11:06 10° S
SJ-11-01 4.3 19:02:32 10° SSE 19:07:14 89° E 19:12:00 10° NNW
Meteor 1-14 Rocket 4.2 19:02:48 10° S 19:08:20 82° E 19:13:54 10° NNE
Cosmos 2360 Rocket 2.2 19:04:02 10° SSW 19:09:42 84° ESE 19:15:25 10° NNE
FALCON 9 DEB 3.3 19:07:30 10° WNW 19:10:39 59° SSW 19:13:45 10° ESE
YAOGAN 1 2.7 19:06:51 10° SSE 19:11:11 80° WSW 19:15:33 10° NNW
Cosmos 1943 Rocket 3.9 19:07:28 10° NNW 19:11:20 18° NNE 19:15:10 10° ENE
SAR-Lupe-4 4.0 19:08:07 10° NNE 19:11:32 39° E 19:14:55 10° S
Meteor 1-13 Rocket 4.3 19:07:04 10° N 19:12:59 65° ENE 19:18:48 10° SSE
SJ 16-02 1.8 19:10:07 10° NNW 19:14:20 42° ENE 19:18:32 10° SE
Cosmos 1727 Rocket 4.4 19:09:03 10° N 19:14:54 42° ENE 19:20:46 10° SE
Cosmos 2278 Rocket 2.5 19:10:42 10° NNW 19:16:13 49° NE 19:21:43 10° SE
Cosmos 2333 4.3 19:10:53 10° S 19:16:25 57° ESE 19:22:03 10° NE
Cosmos 2341 Rocket 4.0 19:10:26 10° S 19:16:39 66° E 19:22:50 10° NNE
Cosmos 2237 Rocket 3.6 19:14:15 10° SE 19:17:37 16° E 19:20:58 10° ENE
FALCON 9 DEB 3.6 19:15:24 10° W 19:18:30 49° SSW 19:21:22 11° SE
SL-4 R/B 3.4 19:15:57 10° W 19:19:00 27° SSW 19:21:57 10° SSE
Okean 3 3.6 19:14:52 10° N 19:19:04 52° ENE 19:23:15 10° SSE
COSMO-SKYMED 1 3.4 19:15:04 10° N 19:19:20 55° WNW 19:23:35 10° SSW
Cosmos 1536 3.5 19:17:51 10° SSE 19:21:23 31° E 19:24:56 10° NNE
Cosmos 2242 Rocket 4.1 19:19:26 10° NNW 19:23:54 66° W 19:28:18 10° S
Meteor 1-5 Rocket 4.1 19:18:37 10° S 19:24:02 75° E 19:29:42 10° NNE
SeaSat 1 3.3 19:20:05 10° NE 19:24:22 28° ESE 19:28:36 10° SSE
Abrixas rocket 3.8 19:23:01 10° WSW 19:24:51 18° SSW 19:26:40 10° SSE
Cosmos 1980 Rocket 4.4 19:22:42 10° W 19:27:02 22° NNW 19:31:24 10° NNE
Cosmos 2218 Rocket 4.1 19:21:10 10° SSE 19:27:21 54° E 19:33:32 10° NNE
MetOp-A 4.2 19:26:31 10° SE 19:31:44 56° ENE 19:37:00 10° N
SAR-Lupe-1 4.0 19:28:25 10° NNE 19:32:01 69° ESE 19:35:36 10° S
Resurs 01 Rocket 3.1 19:31:41 16° E 19:33:17 19° ENE 19:36:24 10° NNE
Gbstr 26 Del rocket 3.4 19:29:39 10° W 19:34:07 75° SSW 19:38:19 17° ESE
USA 234 4.4 19:33:09 15° E 19:36:08 20° SE 19:40:44 10° S
Cosmos 1959 Rocket 4.5 19:30:30 10° S 19:36:27 60° E 19:42:30 10° NNE
Helios 1A Rocket 3.2 19:32:55 10° S 19:36:57 72° WSW 19:41:00 10° NNW
Cosmos 1937 Rocket 4.4 19:32:24 10° NNW 19:36:58 30° NE 19:39:49 19° E
Cosmos 2333 Rocket 2.2 19:31:43 10° SSW 19:37:21 65° ESE 19:43:02 10° NE
Lacrosse 4 Rocket 1.5 19:34:26 10° SSW 19:38:48 64° ESE 19:43:16 10° NE
ERBS 3.4 19:37:08 10° WNW 19:40:13 34° N 19:42:16 17° ENE
GP-B 3.3 19:36:01 10° S 19:40:27 77° W 19:44:56 10° N
CZ-4B R/B 3.6 19:39:11 10° N 19:41:49 26° WNW 19:44:29 10° SW
USA 238 DEB 4.2 19:37:44 10° S 19:43:28 33° ESE 19:49:26 10° NE
USA 238 4.2 19:37:52 10° S 19:43:35 33° ESE 19:49:32 10° NE
Cosmos 2322 Rocket 3.5 19:38:18 10° WSW 19:43:36 41° NW 19:48:57 10° NNE
ARGOS 3.9 19:41:08 10° S 19:46:28 58° W 19:51:52 10° NNW
CZ-4 R/B 3.5 19:43:08 10° SSW 19:46:35 29° W 19:50:06 10° NNW
Cosmos 1689 Rocket 2.5 19:43:56 10° N 19:46:48 62° WNW 19:49:40 10° SSW
Cosmos 1869 Rocket 3.5 19:42:30 10° S 19:46:53 79° E 19:51:20 10° NNE
FALCON 9 DEB 4.3 19:44:09 10° W 19:47:02 32° SSW 19:48:55 17° SSE
Resurs 1-3 4.3 19:45:27 20° ESE 19:47:49 35° ENE 19:51:50 10° N
ERS-2 2.2 19:44:15 10° NNE 19:47:55 78° WNW 19:51:35 10° SSW
Cosmos 192 4.3 19:43:04 10° SSW 19:47:59 86° ESE 19:52:56 10° NNE
IRS-1A Rocket 4.3 19:46:35 10° SE 19:52:02 58° ENE 19:57:27 10° N
Cosmos 1378 3.0 19:48:35 10° N 19:52:21 90° WSW 19:56:04 10° S
Cosmos 2219 Rocket 2.1 19:47:57 10° SSW 19:53:32 75° ESE 19:59:10 10° NNE
CZ-2C R/B 2.6 19:49:37 10° NNE 19:55:07 85° ESE 20:00:28 10° SSW
CREW DRAGON DEMO-1 DEB 3.9 19:52:59 10° SSW 19:55:13 26° SSE 19:55:13 26° SSE
USA 305 3.0 19:52:17 10° WNW 19:56:34 73° SSW 19:58:46 28° ESE
FALCON 9 DEB 4.3 19:53:41 10° W 19:56:36 33° SSW 19:58:06 21° SSE
Cosmos 1238 Rocket 2.6 19:52:54 10° S 19:56:44 53° E 20:00:01 10° NNE
SL-08 RB Rocket 4.4 19:53:33 10° S 19:58:01 56° W 20:02:34 10° NNW
Cosmos 1980 4.2 19:56:49 10° S 20:01:51 34° ESE 20:06:54 10° NE
Cosmos 1733 Rocket 3.3 20:00:02 10° SSE 20:04:07 42° E 20:08:16 10° NNE
COSMOS 2428 2.6 20:02:54 10° SSW 20:08:36 81° ESE 20:14:20 10° NNE
USA 307 3.0 20:06:05 10° WNW 20:10:21 67° SSW 20:12:00 35° SE
USA 306 3.1 20:07:19 10° WNW 20:11:35 64° SSW 20:13:13 35° SE
NOSS 3-2 (A) 3.5 20:06:29 10° SSW 20:11:58 52° SE 20:18:20 10° NE
SL-16 R/B 4.2 20:07:39 10° W 20:12:23 27° NW 20:17:10 10° NNE
ATLAS CENTAUR R/B 3.0 20:11:00 10° W 20:14:12 28° NNW 20:17:30 10° NNE
Cosmos 2369 Rocket 3.5 20:11:48 10° NNW 20:16:19 24° NE 20:18:00 21° ENE
Cosmos 1743 2.7 20:12:51 10° S 20:16:41 60° E 20:20:33 10° NNE
Cosmos 1898 Rocket 3.4 20:11:37 10° NNW 20:16:52 71° ENE 20:19:30 30° SE
Meteor 2-20 4.5 20:11:20 10° NNW 20:17:30 85° W 20:23:38 10° S
USA 308 3.2 20:16:55 10° WNW 20:21:08 60° SSW 20:22:24 40° SSE
NOSS 0 Rocket 3.9 20:16:01 10° S 20:22:00 57° ESE 20:28:02 10° NE
CENTAUR R/B 2.8 20:17:51 10° S 20:23:30 45° ESE 20:30:10 10° NE
Cosmos 2322 4.4 20:24:00 10° SW 20:29:37 56° NW 20:35:16 10° NNE
ASTEX 1 3.4 20:24:47 10° N 20:29:42 81° W 20:34:35 10° SSW
Cosmos 1674 Rocket 3.4 20:26:43 10° N 20:31:04 80° E 20:32:24 44° SSE
SJ-6B 3.5 20:28:20 14° S 20:31:45 55° W 20:35:41 10° NNW
USA 186 3.5 20:31:10 19° SW 20:32:11 25° W 20:34:28 10° NW
Landsat 7 4.1 20:34:35 44° ENE 20:34:52 45° ENE 20:39:25 10° N
Cosmos 372 Rocket 4.3 20:29:56 10° NNW 20:34:55 44° NE 20:35:35 42° ENE
Cosmos 2221 Rocket 4.3 20:31:04 10° NNW 20:35:23 53° W 20:39:43 10° S
OBJECT-B 1.7 20:35:13 34° SSW 20:36:12 47° W 20:39:20 10° NNW
Cosmos 990 Rocket 4.1 20:31:55 10° NNW 20:37:06 73° WSW 20:39:46 29° S
ARIANE 5 R/B 3.8 20:39:17 29° NE 20:39:17 29° NE 20:42:34 10° N
ATLAS 5 CENTAUR R/B 3.5 20:34:11 10° WNW 20:39:19 25° NNW 20:40:39 19° NNE
Ariane Rocket 3.3 20:35:45 16° S 20:39:47 67° WSW 20:44:54 10° NNW
Okean 2 3.5 20:37:14 10° N 20:40:56 57° NE 20:40:56 57° NE
Cosmos 2297 3.8 20:37:39 10° NNW 20:43:23 60° NE 20:44:36 49° ESE
Cosmos 1763 Rocket 3.5 20:38:36 10° S 20:43:47 56° ESE 20:48:59 10° NNE
Cosmos 1378 Rocket 3.5 20:41:01 10° N 20:45:31 88° W 20:46:26 56° S
MetOp-B 4.2 20:45:40 52° ESE 20:46:33 59° ENE 20:51:49 10° N
Cosmos 1707 4.2 20:45:32 10° N 20:47:38 27° NNE 20:47:38 27° NNE
Cosmos 1975 Rocket 4.2 20:46:56 10° N 20:49:55 32° NE 20:49:55 32° NE
SJ 16-02 3.2 20:49:00 10° NW 20:52:46 28° W 20:56:22 11° SSW
NOSS 3-2 (C) 3.3 20:48:08 10° SSW 20:53:44 59° SE 20:55:55 39° ENE
Cosmos 1544 4.0 20:50:14 10° SSW 20:53:47 48° WNW 20:57:22 10° N
Cosmos 2360 Rocket 4.2 20:49:38 10° W 20:54:24 27° NW 20:59:12 10° NNE
Cosmos 468 Rocket 3.9 20:50:18 10° SSW 20:55:35 72° ESE 21:00:52 10° NNE
USA 281 4.4 20:54:07 23° ENE 20:55:42 26° NE 21:00:55 10° NNW
Cosmos 1943 Rocket 2.3 20:50:50 10° NNW 20:56:25 54° NE 20:56:57 52° ENE
Cosmos 858 Rocket 4.4 20:52:44 10° NNW 20:57:57 81° WSW 20:59:01 57° S
Cosmos 2278 Rocket 3.5 20:55:02 10° NW 21:00:12 37° WSW 21:04:05 16° SSW
Cosmos 2237 Rocket 2.0 20:55:05 10° SSW 21:00:47 81° ESE 21:06:32 10° NNE
SeaSat 1 3.0 20:57:17 10° NNE 21:02:10 59° NW 21:07:01 10° SW
Cosmos 1821 Rocket 4.0 20:56:12 10° SSW 21:02:25 78° W 21:08:35 10° N
Cosmos 1535 Rocket 4.5 21:00:59 50° SE 21:02:26 63° E 21:08:43 10° NNE
Meteor 1-21 4.2 20:58:12 10° NNW 21:03:56 88° W 21:05:27 52° S
USA 81 4.3 20:58:51 10° SSW 21:04:05 66° W 21:09:21 10° N
SPOT 3 Rocket 3.6 21:05:03 52° S 21:06:20 76° WSW 21:11:36 10° NNW
Resurs 01 Rocket 1.8 21:09:14 68° WSW 21:09:20 69° WSW 21:13:45 10° NNW
USA 245 4.3 21:12:27 67° ESE 21:13:09 74° ENE 21:19:30 10° NNW
SPOT 1/Viking Rocket 3.5 21:14:33 70° NE 21:14:33 70° NE 21:19:25 10° NNW
Cosmos 1934 Rocket 3.8 21:14:32 53° S 21:16:03 82° E 21:22:15 10° NNE
Lacrosse 4 Rocket 3.5 21:13:59 10° W 21:17:52 28° NW 21:21:47 10° NNE
Cosmos 1937 Rocket 4.0 21:14:12 10° NNW 21:19:14 54° WSW 21:20:01 49° SW
IGS 5A 4.2 21:20:53 50° NW 21:20:53 50° NW 21:24:06 10° NNW
USA 234 3.2 21:20:31 58° SSE 21:20:31 58° SSE 21:26:34 10° SW
Gbstr 26 Del rocket 4.5 21:16:18 10° W 21:20:50 36° SSW 21:20:51 36° SSW
Cosmos 1842 4.5 21:17:09 10° NNW 21:20:30 40° WNW 21:20:30 40° WNW
Cosmos 2333 Rocket 3.9 21:16:56 10° WSW 21:22:03 33° NW 21:27:14 10° NNE
SPOT 5 4.2 21:24:59 28° NNE 21:24:59 28° NNE 21:27:20 10° N
Cosmos 2123 Rocket 4.1 21:17:33 10° NNW 21:23:47 70° W 21:25:45 44° SSW
Cosmos 2298 Rocket 4.4 21:21:41 10° NNW 21:26:09 53° NNE 21:26:09 53° NNE
USA 238 DEB 3.7 21:27:14 10° SW 21:33:53 76° NW 21:40:56 10° NE
USA 238 3.7 21:27:21 10° SW 21:33:59 76° NW 21:41:02 10° NE
Terra 3.3 21:39:45 28° NNE 21:39:45 28° NNE 21:42:13 10° N
Cosmos 2219 Rocket 4.0 21:33:13 10° W 21:38:03 29° NW 21:42:57 10° NNE
ERS-1 Rocket 3.8 21:43:05 43° N 21:43:05 43° N 21:46:31 10° N
Cosmos 1980 4.4 21:40:14 10° SW 21:45:45 53° NW 21:51:18 10° NNE
Spot 2 Rocket 4.2 21:54:46 51° NW 21:54:46 51° NW 21:58:46 10° NNW
ATLAS CENTAUR R/B 4.0 21:52:14 10° NW 21:53:58 14° NNW 21:53:58 14° NNW
Cosmos 1605 Rocket 4.1 22:00:33 75° NW 22:00:33 75° NW 22:06:38 10° N
Cosmos 2369 Rocket 2.8 21:55:32 10° NNW 21:59:48 53° NNW 21:59:48 53° NNW
NOSS 3-2 (A) 4.2 21:57:05 10° WSW 22:02:54 52° NNW 22:09:44 10° NE
CENTAUR R/B 3.1 22:07:47 10° WSW 22:14:01 61° NNW 22:21:31 10° NE
USA 281 3.7 22:40:59 54° NNW 22:40:59 54° NNW 22:45:59 10° NNW
Cosmos 1943 Rocket 3.8 22:34:56 10° NW 22:38:29 29° WNW 22:38:29 29° WNW
NOSS 3-2 (C) 4.4 22:39:04 10° WSW 22:49:45 19° NE 22:51:40 10° NE
Cosmos 2237 Rocket 4.0 22:40:39 10° W 22:45:30 28° NW 22:50:24 10° NNE
SL-16 R/B 4.3 23:11:25 21° N 23:11:25 21° N 23:13:27 10° NNE
